| time (UTC) | temp C | wind direction | speed KPH | gust KPH | rain 1hr cm | rain 24hr cm | rain mn cm | humidity % | barometer mb |
| 20260906191507 | 24 | 247 | 14.5 | 20.9 | 0.00 | 0.00 | 0.00 | 59 | 1017.9 |
| 20260906191005 | 24 | 244 | 9.7 | 19.3 | 0.00 | 0.00 | 0.00 | 60 | 1018.0 |
| 20260906190502 | 24 | 245 | 9.7 | 22.5 | 0.00 | 0.00 | 0.00 | 59 | 1018.1 |
| 20260906190004 | 25 | 282 | 9.7 | 22.5 | 0.00 | 0.00 | 0.00 | 56 | 1018.1 |
| 20260906185503 | 25 | 244 | 6.4 | 14.5 | 0.00 | 0.00 | 0.00 | 58 | 1018.2 |
| 20260906185003 | 25 | 191 | 4.8 | 14.5 | 0.00 | 0.00 | 0.00 | 58 | 1018.2 |
| 20260906184504 | 25 | 233 | 4.8 | 20.9 | 0.00 | 0.00 | 0.00 | 58 | 1018.2 |
| 20260906184006 | 25 | 205 | 6.4 | 20.9 | 0.00 | 0.00 | 0.00 | 58 | 1018.3 |
| 20260906183506 | 25 | 254 | 6.4 | 20.9 | 0.00 | 0.00 | 0.00 | 57 | 1018.3 |
| 20260906183015 | 24 | 247 | 4.8 | 16.1 | 0.00 | 0.00 | 0.00 | 59 | 1018.3 |
| 20260906182504 | 24 | 208 | 8.0 | 16.1 | 0.00 | 0.00 | 0.00 | 60 | 1018.4 |
| 20260906182004 | 23 | 263 | 6.4 | 12.9 | 0.00 | 0.00 | 0.00 | 60 | 1018.4 |
| 20260906181519 | 24 | 230 | 4.8 | 14.5 | 0.00 | 0.00 | 0.00 | 58 | 1018.4 |
| 20260906181009 | 25 | 235 | 6.4 | 16.1 | 0.00 | 0.00 | 0.00 | 58 | 1018.4 |
| 20260906180504 | 25 | 202 | 8.0 | 20.9 | 0.00 | 0.00 | 0.00 | 58 | 1018.4 |
| 20260906180015 | 24 | 256 | 4.8 | 20.9 | 0.00 | 0.00 | 0.00 | 60 | 1018.4 |
| 20260906175509 | 24 | 263 | 8.0 | 20.9 | 0.00 | 0.00 | 0.00 | 60 | 1018.4 |
| 20260906175002 | 24 | 215 | 9.7 | 19.3 | 0.00 | 0.00 | 0.00 | 61 | 1018.4 |
| 20260906174509 | 24 | 235 | 8.0 | 17.7 | 0.00 | 0.00 | 0.00 | 59 | 1018.4 |
| 20260906174003 | 24 | 251 | 6.4 | 17.7 | 0.00 | 0.00 | 0.00 | 62 | 1018.5 |
| 20260906173504 | 24 | 188 | 4.8 | 19.3 | 0.00 | 0.00 | 0.00 | 60 | 1018.5 |
| 20260906173006 | 24 | 183 | 8.0 | 27.4 | 0.00 | 0.00 | 0.00 | 59 | 1018.5 |
| 20260906172504 | 24 | 236 | 12.9 | 27.4 | 0.00 | 0.00 | 0.00 | 61 | 1018.5 |
| 20260906172004 | 24 | 266 | 12.9 | 22.5 | 0.00 | 0.00 | 0.00 | 60 | 1018.4 |
| 20260906171517 | 23 | 235 | 12.9 | 22.5 | 0.00 | 0.00 | 0.00 | 62 | 1018.5 |
| 20260906171004 | 23 | 235 | 12.9 | 22.5 | 0.00 | 0.00 | 0.00 | 60 | 1018.5 |
| 20260906170507 | 23 | 281 | 11.3 | 20.9 | 0.00 | 0.00 | 0.00 | 60 | 1018.5 |
| 20260906170030 | 23 | 240 | 12.9 | 24.1 | 0.00 | 0.00 | 0.00 | 59 | 1018.6 |
| 20260906165506 | 23 | 259 | 11.3 | 24.1 | 0.00 | 0.00 | 0.00 | 60 | 1018.6 |
| 20260906165004 | 23 | 248 | 11.3 | 20.9 | 0.00 | 0.00 | 0.00 | 61 | 1018.6 |
| 20260906164518 | 23 | 260 | 9.7 | 20.9 | 0.00 | 0.00 | 0.00 | 61 | 1018.6 |
| 20260906164013 | 23 | 224 | 14.5 | 25.7 | 0.00 | 0.00 | 0.00 | 61 | 1018.6 |
| 20260906163504 | 23 | 220 | 9.7 | 25.7 | 0.00 | 0.00 | 0.00 | 61 | 1018.6 |
| 20260906163006 | 23 | 238 | 4.8 | 20.9 | 0.00 | 0.00 | 0.00 | 64 | 1018.6 |
| 20260906162506 | 23 | 239 | 9.7 | 24.1 | 0.00 | 0.00 | 0.00 | 62 | 1018.7 |
| 20260906162003 | 23 | 240 | 12.9 | 24.1 | 0.00 | 0.00 | 0.00 | 62 | 1018.7 |
| 20260906161520 | 23 | 286 | 11.3 | 24.1 | 0.00 | 0.00 | 0.00 | 63 | 1018.8 |
| 20260906161008 | 23 | 203 | 8.0 | 17.7 | 0.00 | 0.00 | 0.00 | 65 | 1018.8 |
| 20260906160507 | 23 | 227 | 8.0 | 19.3 | 0.00 | 0.00 | 0.00 | 66 | 1018.8 |
| 20260906160008 | 23 | 246 | 9.7 | 19.3 | 0.00 | 0.00 | 0.00 | 65 | 1018.8 |
| 20260906155506 | 23 | 248 | 8.0 | 17.7 | 0.00 | 0.00 | 0.00 | 65 | 1018.8 |
| 20260906155010 | 23 | 209 | 8.0 | 20.9 | 0.00 | 0.00 | 0.00 | 65 | 1018.9 |
| 20260906154526 | 23 | 215 | 8.0 | 20.9 | 0.00 | 0.00 | 0.00 | 66 | 1018.9 |
| 20260906154008 | 22 | 282 | 6.4 | 19.3 | 0.00 | 0.00 | 0.00 | 67 | 1018.8 |
| 20260906153510 | 22 | 244 | 8.0 | 19.3 | 0.00 | 0.00 | 0.00 | 67 | 1018.8 |
| 20260906153030 | 22 | 271 | 8.0 | 20.9 | 0.00 | 0.00 | 0.00 | 67 | 1018.7 |
| 20260906152516 | 22 | 250 | 11.3 | 20.9 | 0.00 | 0.00 | 0.00 | 67 | 1018.6 |
| 20260906152007 | 22 | 215 | 9.7 | 20.9 | 0.00 | 0.00 | 0.00 | 67 | 1018.6 |
| 20260906151510 | 22 | 235 | 11.3 | 17.7 | 0.00 | 0.00 | 0.00 | 67 | 1018.6 |
| 20260906151003 | 22 | 163 | 8.0 | 17.7 | 0.00 | 0.00 | 0.00 | 68 | 1018.6 |
| 20260906150502 | 22 | 240 | 4.8 | 19.3 | 0.00 | 0.00 | 0.00 | 69 | 1018.6 |
| 20260906150014 | 21 | 265 | 9.7 | 20.9 | 0.00 | 0.00 | 0.00 | 69 | 1018.5 |
| 20260906145505 | 21 | 266 | 9.7 | 20.9 | 0.00 | 0.00 | 0.00 | 69 | 1018.5 |
| 20260906145011 | 21 | 229 | 11.3 | 19.3 | 0.00 | 0.00 | 0.00 | 69 | 1018.5 |
| 20260906144523 | 21 | 257 | 8.0 | 17.7 | 0.00 | 0.00 | 0.00 | 69 | 1018.6 |
| 20260906144011 | 21 | 265 | 11.3 | 19.3 | 0.00 | 0.00 | 0.00 | 69 | 1018.6 |
| 20260906143514 | 21 | 256 | 12.9 | 19.3 | 0.00 | 0.00 | 0.00 | 70 | 1018.5 |
| 20260906143028 | 21 | 235 | 4.8 | 20.9 | 0.00 | 0.00 | 0.00 | 70 | 1018.5 |
| 20260906142507 | 21 | 256 | 6.4 | 20.9 | 0.00 | 0.00 | 0.00 | 70 | 1018.3 |
| 20260906142016 | 21 | 206 | 4.8 | 14.5 | 0.00 | 0.00 | 0.00 | 72 | 1018.3 |
| 20260906141532 | 21 | 251 | 4.8 | 12.9 | 0.00 | 0.00 | 0.00 | 72 | 1018.3 |
| 20260906141008 | 21 | 185 | 4.8 | 12.9 | 0.00 | 0.00 | 0.00 | 74 | 1018.4 |
| 20260906140507 | 21 | 215 | 4.8 | 11.3 | 0.00 | 0.00 | 0.00 | 74 | 1018.4 |
| 20260906140029 | 21 | 225 | 4.8 | 11.3 | 0.00 | 0.00 | 0.00 | 75 | 1018.4 |
| 20260906135508 | 21 | 224 | 4.8 | 17.7 | 0.00 | 0.00 | 0.00 | 76 | 1018.4 |
| 20260906135007 | 20 | 195 | 9.7 | 17.7 | 0.00 | 0.00 | 0.00 | 75 | 1018.4 |
| 20260906134536 | 20 | 248 | 4.8 | 12.9 | 0.00 | 0.00 | 0.00 | 77 | 1018.3 |
| 20260906134010 | 20 | 244 | 1.6 | 11.3 | 0.00 | 0.00 | 0.00 | 77 | 1018.3 |
| 20260906133506 | 20 | 213 | 4.8 | 12.9 | 0.00 | 0.00 | 0.00 | 78 | 1018.3 |
| 20260906133028 | 20 | 246 | 6.4 | 12.9 | 0.00 | 0.00 | 0.00 | 78 | 1018.3 |
| 20260906132510 | 20 | 217 | 4.8 | 11.3 | 0.00 | 0.00 | 0.00 | 78 | 1018.3 |
| 20260906132017 | 19 | 253 | 3.2 | 11.3 | 0.00 | 0.00 | 0.00 | 81 | 1018.3 |
| 20260906131516 | 18 | 216 | 4.8 | 11.3 | 0.00 | 0.00 | 0.00 | 81 | 1018.3 |
| 20260906131017 | 18 | 236 | 3.2 | 9.7 | 0.00 | 0.00 | 0.00 | 83 | 1018.2 |
| 20260906130517 | 18 | 221 | 3.2 | 11.3 | 0.00 | 0.00 | 0.00 | 84 | 1018.2 |
| 20260906130037 | 17 | 250 | 3.2 | 11.3 | 0.00 | 0.00 | 0.00 | 85 | 1018.2 |
| 20260906125507 | 17 | 225 | 3.2 | 11.3 | 0.00 | 0.00 | 0.00 | 86 | 1018.1 |
| 20260906125013 | 17 | 197 | 4.8 | 11.3 | 0.00 | 0.00 | 0.00 | 87 | 1018.0 |
| 20260906124533 | 16 | 228 | 3.2 | 9.7 | 0.00 | 0.00 | 0.00 | 88 | 1017.9 |
| 20260906124006 | 16 | 229 | 3.2 | 9.7 | 0.00 | 0.00 | 0.00 | 89 | 1017.9 |
| 20260906123508 | 16 | 208 | 4.8 | 9.7 | 0.00 | 0.00 | 0.00 | 89 | 1017.8 |
| 20260906123029 | 16 | 213 | 4.8 | 9.7 | 0.00 | 0.00 | 0.00 | 89 | 1017.9 |
| 20260906122512 | 16 | 211 | 3.2 | 9.7 | 0.00 | 0.00 | 0.00 | 90 | 1017.8 |
| 20260906122008 | 15 | 207 | 3.2 | 9.7 | 0.00 | 0.00 | 0.00 | 90 | 1017.8 |
| 20260906121528 | 15 | 204 | 3.2 | 11.3 | 0.00 | 0.00 | 0.00 | 90 | 1017.7 |
| 20260906121014 | 15 | 215 | 3.2 | 11.3 | 0.00 | 0.00 | 0.00 | 90 | 1017.7 |
| 20260906120516 | 15 | 207 | 4.8 | 9.7 | 0.00 | 0.00 | 0.00 | 91 | 1017.6 |
| 20260906120025 | 15 | 210 | 4.8 | 9.7 | 0.00 | 0.00 | 0.00 | 91 | 1017.5 |
| 20260906115517 | 15 | 218 | 3.2 | 8.0 | 0.00 | 0.00 | 0.00 | 91 | 1017.4 |
| 20260906115017 | 15 | 244 | 1.6 | 8.0 | 0.00 | 0.00 | 0.00 | 91 | 1017.3 |
| 20260906114523 | 15 | 229 | 3.2 | 8.0 | 0.00 | 0.00 | 0.00 | 91 | 1017.2 |
| 20260906114011 | 14 | 240 | 1.6 | 8.0 | 0.00 | 0.00 | 0.00 | 92 | 1017.2 |
| 20260906113517 | 14 | 217 | 3.2 | 8.0 | 0.00 | 0.00 | 0.00 | 92 | 1017.1 |
| 20260906113034 | 14 | 207 | 3.2 | 8.0 | 0.00 | 0.00 | 0.00 | 92 | 1017.1 |
| 20260906112512 | 14 | 241 | 3.2 | 8.0 | 0.00 | 0.00 | 0.00 | 92 | 1017.0 |
| 20260906112010 | 14 | 238 | 3.2 | 8.0 | 0.00 | 0.00 | 0.00 | 92 | 1017.1 |
| 20260906111524 | 14 | 205 | 3.2 | 8.0 | 0.00 | 0.00 | 0.00 | 92 | 1017.0 |
| 20260906111008 | 14 | 225 | 3.2 | 8.0 | 0.00 | 0.00 | 0.00 | 92 | 1017.1 |
| 20260906110514 | 14 | 213 | 4.8 | 9.7 | 0.00 | 0.00 | 0.00 | 92 | 1017.1 |
| 20260906110034 | 14 | 229 | 4.8 | 9.7 | 0.00 | 0.00 | 0.00 | 92 | 1017.0 |
| 20260906105508 | 14 | 212 | 4.8 | 9.7 | 0.00 | 0.00 | 0.00 | 92 | 1017.0 |
| 20260906105011 | 14 | 217 | 4.8 | 9.7 | 0.00 | 0.00 | 0.00 | 92 | 1016.9 |
| 20260906104538 | 14 | 219 | 4.8 | 11.3 | 0.00 | 0.00 | 0.00 | 92 | 1016.8 |
| 20260906104014 | 14 | 202 | 6.4 | 11.3 | 0.00 | 0.00 | 0.00 | 92 | 1016.7 |
| 20260906103508 | 14 | 214 | 4.8 | 9.7 | 0.00 | 0.00 | 0.00 | 92 | 1016.7 |
| 20260906103015 | 14 | 217 | 3.2 | 11.3 | 0.00 | 0.00 | 0.00 | 92 | 1016.7 |
| 20260906102508 | 14 | 205 | 4.8 | 11.3 | 0.00 | 0.00 | 0.00 | 93 | 1016.7 |
| 20260906102009 | 14 | 217 | 6.4 | 11.3 | 0.00 | 0.00 | 0.00 | 93 | 1016.7 |
| 20260906101529 | 14 | 214 | 4.8 | 9.7 | 0.00 | 0.00 | 0.00 | 93 | 1016.7 |
| 20260906101012 | 14 | 215 | 4.8 | 11.3 | 0.00 | 0.00 | 0.00 | 93 | 1016.7 |
| 20260906100512 | 14 | 219 | 4.8 | 11.3 | 0.00 | 0.00 | 0.00 | 93 | 1016.8 |
| 20260906100016 | 14 | 216 | 3.2 | 8.0 | 0.00 | 0.00 | 0.00 | 93 | 1016.7 |
| 20260906095511 | 14 | 215 | 4.8 | 8.0 | 0.00 | 0.00 | 0.00 | 93 | 1016.7 |
| 20260906095016 | 14 | 213 | 3.2 | 8.0 | 0.00 | 0.00 | 0.00 | 93 | 1016.7 |
| 20260906094536 | 14 | 206 | 3.2 | 8.0 | 0.00 | 0.00 | 0.00 | 93 | 1016.7 |
| 20260906094009 | 14 | 207 | 3.2 | 9.7 | 0.00 | 0.00 | 0.00 | 93 | 1016.6 |
| 20260906093516 | 14 | 212 | 3.2 | 9.7 | 0.00 | 0.00 | 0.00 | 93 | 1016.6 |
| 20260906093034 | 14 | 188 | 3.2 | 11.3 | 0.00 | 0.00 | 0.00 | 92 | 1016.7 |
| 20260906092511 | 14 | 226 | 4.8 | 12.9 | 0.00 | 0.00 | 0.00 | 92 | 1016.7 |
| 20260906092010 | 14 | 200 | 4.8 | 12.9 | 0.00 | 0.00 | 0.00 | 93 | 1016.7 |
| 20260906091519 | 14 | 196 | 3.2 | 8.0 | 0.00 | 0.00 | 0.00 | 93 | 1016.7 |
| 20260906091010 | 14 | 225 | 3.2 | 9.7 | 0.00 | 0.00 | 0.00 | 93 | 1016.6 |
| 20260906090512 | 14 | 196 | 4.8 | 9.7 | 0.00 | 0.00 | 0.00 | 93 | 1016.6 |
| 20260906090027 | 14 | 196 | 3.2 | 9.7 | 0.00 | 0.00 | 0.00 | 93 | 1016.6 |
| 20260906085512 | 14 | 225 | 3.2 | 9.7 | 0.00 | 0.00 | 0.00 | 93 | 1016.5 |
| 20260906085014 | 14 | 211 | 3.2 | 9.7 | 0.00 | 0.00 | 0.00 | 93 | 1016.5 |
| 20260906084528 | 14 | 202 | 3.2 | 8.0 | 0.00 | 0.00 | 0.00 | 92 | 1016.5 |
| 20260906084017 | 14 | 185 | 4.8 | 8.0 | 0.00 | 0.00 | 0.00 | 92 | 1016.5 |
| 20260906083515 | 14 | 234 | 4.8 | 8.0 | 0.00 | 0.00 | 0.00 | 92 | 1016.5 |
| 20260906083019 | 14 | 217 | 3.2 | 8.0 | 0.00 | 0.00 | 0.00 | 92 | 1016.5 |
| 20260906082511 | 14 | 213 | 3.2 | 8.0 | 0.00 | 0.00 | 0.00 | 92 | 1016.5 |
| 20260906082016 | 14 | 202 | 3.2 | 6.4 | 0.00 | 0.00 | 0.00 | 92 | 1016.4 |
| 20260906081534 | 14 | 212 | 1.6 | 8.0 | 0.00 | 0.00 | 0.00 | 92 | 1016.5 |
| 20260906081008 | 14 | 213 | 3.2 | 8.0 | 0.00 | 0.00 | 0.00 | 92 | 1016.4 |
| 20260906080512 | 14 | 198 | 3.2 | 6.4 | 0.00 | 0.00 | 0.00 | 92 | 1016.3 |
| 20260906080010 | 14 | 208 | 1.6 | 6.4 | 0.00 | 0.00 | 0.00 | 92 | 1016.4 |
| 20260906075507 | 14 | 192 | 0.0 | 8.0 | 0.00 | 0.00 | 0.00 | 92 | 1016.3 |
| 20260906075012 | 15 | 195 | 3.2 | 8.0 | 0.00 | 0.00 | 0.00 | 92 | 1016.1 |
| 20260906074530 | 15 | 207 | 1.6 | 8.0 | 0.00 | 0.00 | 0.00 | 92 | 1016.1 |
| 20260906074009 | 15 | 211 | 1.6 | 6.4 | 0.00 | 0.00 | 0.00 | 92 | 1016.2 |
| 20260906073513 | 15 | 210 | 3.2 | 6.4 | 0.00 | 0.00 | 0.00 | 92 | 1016.2 |
| 20260906073035 | 15 | 232 | 1.6 | 9.7 | 0.00 | 0.00 | 0.00 | 92 | 1016.1 |
| 20260906072517 | 15 | 210 | 3.2 | 9.7 | 0.00 | 0.00 | 0.00 | 92 | 1016.0 |
| 20260906072006 | 15 | 209 | 3.2 | 8.0 | 0.00 | 0.00 | 0.00 | 93 | 1016.0 |
| 20260906071527 | 15 | 222 | 1.6 | 8.0 | 0.00 | 0.00 | 0.00 | 92 | 1016.0 |
| 20260906071013 | 15 | 206 | 3.2 | 8.0 | 0.00 | 0.00 | 0.00 | 92 | 1016.1 |
| 20260906070506 | 15 | 217 | 3.2 | 8.0 | 0.00 | 0.00 | 0.00 | 92 | 1016.1 |
| 20260906070016 | 15 | 215 | 3.2 | 8.0 | 0.00 | 0.00 | 0.00 | 92 | 1016.1 |
| 20260906065507 | 15 | 194 | 3.2 | 6.4 | 0.00 | 0.00 | 0.00 | 92 | 1016.1 |
| 20260906065007 | 15 | 208 | 3.2 | 6.4 | 0.00 | 0.00 | 0.00 | 91 | 1016.1 |
| 20260906064517 | 15 | 215 | 1.6 | 4.8 | 0.00 | 0.00 | 0.00 | 91 | 1016.1 |
| 20260906064010 | 15 | 205 | 1.6 | 4.8 | 0.00 | 0.00 | 0.00 | 91 | 1016.1 |
| 20260906063513 | 15 | 201 | 1.6 | 4.8 | 0.00 | 0.00 | 0.00 | 90 | 1016.1 |
| 20260906063031 | 15 | 194 | 1.6 | 4.8 | 0.00 | 0.00 | 0.00 | 90 | 1016.1 |
| 20260906062507 | 15 | 212 | 1.6 | 4.8 | 0.00 | 0.00 | 0.00 | 90 | 1016.1 |
| 20260906062016 | 15 | 217 | 1.6 | 4.8 | 0.00 | 0.00 | 0.00 | 89 | 1016.1 |
| 20260906061536 | 15 | 208 | 1.6 | 4.8 | 0.00 | 0.00 | 0.00 | 89 | 1016.1 |
| 20260906061007 | 15 | 208 | 1.6 | 6.4 | 0.00 | 0.00 | 0.00 | 88 | 1016.0 |
| 20260906060514 | 16 | 214 | 1.6 | 6.4 | 0.00 | 0.00 | 0.00 | 88 | 1015.9 |
| 20260906060033 | 16 | 218 | 1.6 | 8.0 | 0.00 | 0.00 | 0.00 | 88 | 1015.9 |
| 20260906055515 | 16 | 222 | 3.2 | 8.0 | 0.00 | 0.00 | 0.00 | 87 | 1015.9 |
| 20260906055008 | 16 | 202 | 3.2 | 8.0 | 0.00 | 0.00 | 0.00 | 87 | 1015.9 |
| 20260906054516 | 16 | 215 | 3.2 | 8.0 | 0.00 | 0.00 | 0.00 | 87 | 1016.0 |
| 20260906054011 | 16 | 213 | 3.2 | 8.0 | 0.00 | 0.00 | 0.00 | 86 | 1016.0 |
| 20260906053511 | 16 | 211 | 3.2 | 8.0 | 0.00 | 0.00 | 0.00 | 86 | 1016.0 |
| 20260906053027 | 16 | 216 | 3.2 | 8.0 | 0.00 | 0.00 | 0.00 | 85 | 1016.0 |
| 20260906052518 | 16 | 214 | 3.2 | 8.0 | 0.00 | 0.00 | 0.00 | 85 | 1016.0 |
| 20260906052011 | 16 | 182 | 3.2 | 8.0 | 0.00 | 0.00 | 0.00 | 85 | 1016.0 |
| 20260906051529 | 16 | 204 | 3.2 | 8.0 | 0.00 | 0.00 | 0.00 | 84 | 1016.0 |
| 20260906051013 | 16 | 222 | 3.2 | 6.4 | 0.00 | 0.00 | 0.00 | 84 | 1015.9 |
| 20260906050515 | 16 | 208 | 0.0 | 6.4 | 0.00 | 0.00 | 0.00 | 84 | 1016.0 |
| 20260906050032 | 16 | 227 | 0.0 | 6.4 | 0.00 | 0.00 | 0.00 | 83 | 1015.9 |
| 20260906045509 | 16 | 215 | 3.2 | 9.7 | 0.00 | 0.00 | 0.00 | 83 | 1015.8 |
| 20260906045015 | 16 | 221 | 1.6 | 9.7 | 0.00 | 0.00 | 0.00 | 83 | 1015.9 |
| 20260906044534 | 17 | 227 | 3.2 | 8.0 | 0.00 | 0.00 | 0.00 | 83 | 1015.8 |
| 20260906044018 | 17 | 195 | 3.2 | 6.4 | 0.00 | 0.00 | 0.00 | 82 | 1015.9 |
| 20260906043515 | 17 | 213 | 3.2 | 6.4 | 0.00 | 0.00 | 0.00 | 82 | 1015.9 |
| 20260906043023 | 17 | 216 | 1.6 | 6.4 | 0.00 | 0.00 | 0.00 | 82 | 1015.9 |
| 20260906042512 | 17 | 227 | 3.2 | 9.7 | 0.00 | 0.00 | 0.00 | 81 | 1015.9 |
| 20260906042014 | 17 | 212 | 4.8 | 9.7 | 0.00 | 0.00 | 0.00 | 81 | 1015.9 |
| 20260906041527 | 17 | 260 | 1.6 | 8.0 | 0.00 | 0.00 | 0.00 | 81 | 1015.9 |
| 20260906041018 | 17 | 215 | 3.2 | 9.7 | 0.00 | 0.00 | 0.00 | 81 | 1016.0 |
| 20260906040516 | 17 | 212 | 3.2 | 9.7 | 0.00 | 0.00 | 0.00 | 81 | 1015.9 |
| 20260906040035 | 17 | 234 | 3.2 | 9.7 | 0.00 | 0.00 | 0.00 | 81 | 1016.0 |
| 20260906035517 | 17 | 211 | 0.0 | 9.7 | 0.00 | 0.00 | 0.00 | 81 | 1016.0 |
| 20260906035014 | 17 | 214 | 1.6 | 8.0 | 0.00 | 0.00 | 0.00 | 81 | 1015.9 |
| 20260906034542 | 17 | 217 | 1.6 | 8.0 | 0.00 | 0.00 | 0.00 | 81 | 1015.9 |
| 20260906034011 | 17 | 222 | 1.6 | 6.4 | 0.00 | 0.00 | 0.00 | 81 | 1016.0 |
| 20260906033515 | 17 | 200 | 1.6 | 8.0 | 0.00 | 0.00 | 0.00 | 80 | 1016.1 |
| 20260906033044 | 17 | 231 | 1.6 | 8.0 | 0.00 | 0.00 | 0.00 | 80 | 1016.1 |
| 20260906032511 | 17 | 225 | 0.0 | 8.0 | 0.00 | 0.00 | 0.00 | 80 | 1016.1 |
| 20260906032016 | 17 | 244 | 1.6 | 8.0 | 0.00 | 0.00 | 0.00 | 80 | 1016.0 |
| 20260906031534 | 17 | 229 | 3.2 | 8.0 | 0.00 | 0.00 | 0.00 | 79 | 1016.0 |
| 20260906031014 | 17 | 246 | 1.6 | 6.4 | 0.00 | 0.00 | 0.00 | 79 | 1016.1 |
| 20260906030516 | 17 | 214 | 0.0 | 9.7 | 0.00 | 0.00 | 0.00 | 79 | 1016.2 |
| 20260906030028 | 17 | 243 | 1.6 | 9.7 | 0.00 | 0.00 | 0.00 | 78 | 1016.1 |
| 20260906025515 | 18 | 225 | 3.2 | 8.0 | 0.00 | 0.00 | 0.00 | 78 | 1016.1 |
| 20260906025014 | 18 | 221 | 1.6 | 8.0 | 0.00 | 0.00 | 0.00 | 78 | 1016.1 |
| 20260906024537 | 18 | 209 | 3.2 | 8.0 | 0.00 | 0.00 | 0.00 | 78 | 1016.1 |
| 20260906024018 | 18 | 207 | 3.2 | 8.0 | 0.00 | 0.00 | 0.00 | 77 | 1016.0 |
| 20260906023520 | 18 | 207 | 3.2 | 8.0 | 0.00 | 0.00 | 0.00 | 77 | 1015.9 |
| 20260906023026 | 18 | 225 | 3.2 | 8.0 | 0.00 | 0.00 | 0.00 | 77 | 1016.1 |
| 20260906022515 | 18 | 215 | 3.2 | 9.7 | 0.00 | 0.00 | 0.00 | 76 | 1015.9 |
| 20260906022016 | 18 | 214 | 3.2 | 12.9 | 0.00 | 0.00 | 0.00 | 76 | 1015.8 |
| 20260906021547 | 18 | 224 | 3.2 | 12.9 | 0.00 | 0.00 | 0.00 | 75 | 1015.8 |
| 20260906021017 | 18 | 227 | 3.2 | 11.3 | 0.00 | 0.00 | 0.00 | 75 | 1015.8 |
| 20260906020515 | 18 | 222 | 3.2 | 12.9 | 0.00 | 0.00 | 0.00 | 75 | 1015.8 |
| 20260906020003 | 19 | 206 | 4.8 | 12.9 | 0.00 | 0.00 | 0.00 | 74 | 1015.7 |
| 20260906015503 | 19 | 236 | 1.6 | 8.0 | 0.00 | 0.00 | 0.00 | 74 | 1015.8 |
| 20260906015003 | 19 | 213 | 3.2 | 11.3 | 0.00 | 0.00 | 0.00 | 74 | 1015.7 |
| 20260906014507 | 19 | 229 | 4.8 | 14.5 | 0.00 | 0.00 | 0.00 | 74 | 1015.6 |
| 20260906014008 | 19 | 219 | 3.2 | 14.5 | 0.00 | 0.00 | 0.00 | 74 | 1015.6 |
| 20260906013504 | 19 | 219 | 1.6 | 8.0 | 0.00 | 0.00 | 0.00 | 73 | 1015.6 |
| 20260906013010 | 19 | 246 | 3.2 | 9.7 | 0.00 | 0.00 | 0.00 | 74 | 1015.5 |
| 20260906012503 | 20 | 250 | 3.2 | 9.7 | 0.00 | 0.00 | 0.00 | 73 | 1015.6 |
| 20260906012003 | 20 | 221 | 1.6 | 9.7 | 0.00 | 0.00 | 0.00 | 73 | 1015.6 |
| 20260906011506 | 20 | 211 | 1.6 | 9.7 | 0.00 | 0.00 | 0.00 | 72 | 1015.5 |
| 20260906011005 | 20 | 263 | 3.2 | 11.3 | 0.00 | 0.00 | 0.00 | 72 | 1015.5 |
| 20260906010508 | 20 | 228 | 4.8 | 11.3 | 0.00 | 0.00 | 0.00 | 71 | 1015.5 |
| 20260906010003 | 20 | 233 | 3.2 | 12.9 | 0.00 | 0.00 | 0.00 | 71 | 1015.6 |
| 20260906005504 | 20 | 242 | 3.2 | 12.9 | 0.00 | 0.00 | 0.00 | 71 | 1015.6 |
| 20260906005003 | 20 | 209 | 4.8 | 17.7 | 0.00 | 0.00 | 0.00 | 71 | 1015.5 |
| 20260906004502 | 20 | 182 | 6.4 | 17.7 | 0.00 | 0.00 | 0.00 | 71 | 1015.5 |
| 20260906004005 | 21 | 265 | 8.0 | 14.5 | 0.00 | 0.00 | 0.00 | 72 | 1015.5 |
| 20260906003503 | 21 | 235 | 6.4 | 14.5 | 0.00 | 0.00 | 0.00 | 73 | 1015.4 |
| 20260906003008 | 21 | 232 | 3.2 | 17.7 | 0.00 | 0.00 | 0.00 | 72 | 1015.3 |
| 20260906002502 | 21 | 221 | 8.0 | 17.7 | 0.00 | 0.00 | 0.00 | 72 | 1015.3 |
| 20260906002003 | 21 | 202 | 6.4 | 16.1 | 0.00 | 0.00 | 0.00 | 73 | 1015.2 |
| 20260906001509 | 22 | 213 | 6.4 | 16.1 | 0.00 | 0.00 | 0.00 | 73 | 1015.0 |
| 20260906001007 | 22 | 178 | 6.4 | 17.7 | 0.00 | 0.00 | 0.00 | 74 | 1014.9 |
| 20260906000503 | 22 | 211 | 4.8 | 17.7 | 0.00 | 0.00 | 0.00 | 74 | 1015.0 |
| 20260906000012 | 22 | 225 | 8.0 | 17.7 | 0.00 | 0.00 | 0.00 | 74 | 1014.9 |
| 20260905235512 | 22 | 239 | 6.4 | 17.7 | 0.00 | 0.00 | 0.00 | 75 | 1014.9 |
| 20260905235010 | 22 | 198 | 3.2 | 14.5 | 0.00 | 0.00 | 0.00 | 78 | 1014.7 |
| 20260905234507 | 22 | 276 | 6.4 | 14.5 | 0.00 | 0.00 | 0.00 | 79 | 1014.7 |
| 20260905234008 | 23 | 210 | 1.6 | 9.7 | 0.00 | 0.00 | 0.00 | 79 | 1014.7 |
| 20260905233510 | 23 | 213 | 1.6 | 16.1 | 0.00 | 0.00 | 0.00 | 78 | 1014.7 |
| 20260905233012 | 23 | 191 | 3.2 | 16.1 | 0.00 | 0.00 | 0.00 | 78 | 1014.7 |
| 20260905232505 | 23 | 225 | 6.4 | 16.1 | 0.00 | 0.00 | 0.00 | 79 | 1014.6 |
| 20260905232003 | 23 | 223 | 4.8 | 9.7 | 0.00 | 0.00 | 0.00 | 80 | 1014.5 |
| 20260905231508 | 23 | 231 | 3.2 | 12.9 | 0.00 | 0.00 | 0.00 | 80 | 1014.4 |
| 20260905231006 | 23 | 232 | 3.2 | 12.9 | 0.00 | 0.00 | 0.00 | 80 | 1014.3 |
| 20260905230507 | 23 | 267 | 3.2 | 8.0 | 0.00 | 0.00 | 0.00 | 80 | 1014.2 |
| 20260905230014 | 23 | 198 | 1.6 | 8.0 | 0.00 | 0.00 | 0.00 | 80 | 1014.3 |
| 20260905225508 | 23 | 225 | 4.8 | 8.0 | 0.00 | 0.00 | 0.00 | 79 | 1014.2 |
| 20260905225003 | 23 | 214 | 3.2 | 11.3 | 0.00 | 0.00 | 0.00 | 78 | 1014.2 |
| 20260905224521 | 23 | 238 | 4.8 | 12.9 | 0.00 | 0.00 | 0.00 | 78 | 1014.2 |
| 20260905224012 | 24 | 248 | 3.2 | 14.5 | 0.00 | 0.00 | 0.00 | 79 | 1014.1 |
| 20260905223504 | 24 | 222 | 6.4 | 14.5 | 0.00 | 0.00 | 0.00 | 79 | 1014.1 |
| 20260905223015 | 24 | 210 | 4.8 | 14.5 | 0.00 | 0.00 | 0.00 | 79 | 1014.0 |
| 20260905222513 | 24 | 211 | 4.8 | 12.9 | 0.00 | 0.00 | 0.00 | 78 | 1014.0 |
| 20260905222014 | 24 | 207 | 3.2 | 12.9 | 0.00 | 0.00 | 0.00 | 78 | 1014.0 |
| 20260905221508 | 24 | 196 | 3.2 | 12.9 | 0.00 | 0.00 | 0.00 | 79 | 1014.0 |
| 20260905221003 | 25 | 203 | 4.8 | 14.5 | 0.00 | 0.00 | 0.00 | 77 | 1014.0 |
| 20260905220504 | 25 | 182 | 4.8 | 14.5 | 0.00 | 0.00 | 0.00 | 76 | 1013.9 |
| 20260905220013 | 25 | 194 | 1.6 | 9.7 | 0.00 | 0.00 | 0.00 | 79 | 1013.9 |
| 20260905215507 | 25 | 215 | 3.2 | 12.9 | 0.00 | 0.00 | 0.00 | 78 | 1013.8 |
| 20260905215008 | 25 | 165 | 1.6 | 12.9 | 0.00 | 0.00 | 0.00 | 78 | 1013.8 |
| 20260905214517 | 25 | 246 | 3.2 | 12.9 | 0.00 | 0.00 | 0.00 | 78 | 1013.8 |
| 20260905214004 | 25 | 223 | 4.8 | 11.3 | 0.00 | 0.00 | 0.00 | 77 | 1013.8 |
| 20260905213512 | 25 | 175 | 3.2 | 14.5 | 0.00 | 0.00 | 0.00 | 77 | 1013.7 |
| 20260905213028 | 25 | 175 | 4.8 | 20.9 | 0.00 | 0.00 | 0.00 | 76 | 1013.8 |
| 20260905212512 | 25 | 270 | 6.4 | 20.9 | 0.00 | 0.00 | 0.00 | 77 | 1013.8 |
| 20260905212007 | 25 | 239 | 8.0 | 16.1 | 0.00 | 0.00 | 0.00 | 76 | 1013.6 |
| 20260905211530 | 25 | 243 | 4.8 | 16.1 | 0.00 | 0.00 | 0.00 | 76 | 1013.6 |
| 20260905211016 | 25 | 219 | 4.8 | 14.5 | 0.00 | 0.00 | 0.00 | 78 | 1013.7 |
| 20260905210517 | 25 | 229 | 6.4 | 14.5 | 0.00 | 0.00 | 0.00 | 79 | 1013.8 |
| 20260905210017 | 25 | 217 | 3.2 | 14.5 | 0.00 | 0.00 | 0.00 | 81 | 1013.8 |
| 20260905205503 | 24 | 260 | 4.8 | 16.1 | 0.00 | 0.00 | 0.00 | 80 | 1013.7 |
| 20260905205004 | 24 | 232 | 6.4 | 16.1 | 0.00 | 0.00 | 0.00 | 80 | 1013.7 |
| 20260905204511 | 24 | 212 | 3.2 | 12.9 | 0.00 | 0.00 | 0.00 | 81 | 1013.8 |
| 20260905204005 | 25 | 263 | 4.8 | 12.9 | 0.00 | 0.00 | 0.00 | 80 | 1013.9 |
| 20260905203508 | 25 | 217 | 4.8 | 12.9 | 0.00 | 0.00 | 0.00 | 79 | 1013.9 |
| 20260905203021 | 25 | 248 | 4.8 | 17.7 | 0.00 | 0.00 | 0.00 | 78 | 1013.9 |
| 20260905202508 | 25 | 198 | 6.4 | 17.7 | 0.00 | 0.00 | 0.00 | 78 | 1013.9 |
| 20260905202012 | 25 | 224 | 3.2 | 9.7 | 0.00 | 0.00 | 0.00 | 82 | 1013.9 |
| 20260905201527 | 25 | 210 | 3.2 | 11.3 | 0.00 | 0.00 | 0.00 | 81 | 1013.9 |
| 20260905201005 | 25 | 142 | 4.8 | 11.3 | 0.00 | 0.00 | 0.00 | 82 | 1014.0 |
| 20260905200509 | 24 | 220 | 1.6 | 6.4 | 0.00 | 0.00 | 0.00 | 85 | 1014.0 |
| 20260905200033 | 24 | 162 | 1.6 | 6.4 | 0.00 | 0.00 | 0.00 | 84 | 1014.2 |
| 20260905195515 | 24 | 215 | 0.0 | 4.8 | 0.00 | 0.00 | 0.00 | 83 | 1014.1 |
| 20260905195007 | 24 | 230 | 1.6 | 6.4 | 0.00 | 0.00 | 0.00 | 83 | 1014.2 |
| 20260905194526 | 24 | 202 | 0.0 | 6.4 | 0.00 | 0.00 | 0.00 | 83 | 1014.3 |
| 20260905194007 | 24 | 204 | 0.0 | 9.7 | 0.00 | 0.00 | 0.00 | 82 | 1014.2 |
| 20260905193504 | 24 | 279 | 3.2 | 12.9 | 0.00 | 0.00 | 0.00 | 82 | 1014.2 |
| 20260905193019 | 24 | 242 | 6.4 | 12.9 | 0.00 | 0.00 | 0.00 | 81 | 1014.2 |
| 20260905192510 | 25 | 231 | 6.4 | 12.9 | 0.00 | 0.00 | 0.00 | 81 | 1014.2 |
| 20260905192009 | 25 | 211 | 4.8 | 14.5 | 0.00 | 0.00 | 0.00 | 79 | 1014.2 |